Monarch Pass, CO

2:35 PM MDT on April 25, 2018 (GMT -0600)
Monarch Pass

Weather History for KMYP - November, 2013

Change the Weather History Date:

Thursday, November 28, 2013

  Actual Average (KALS) Record (KALS)
Temperature  
Mean Temperature 28 °F -  
Max Temperature 32 °F 37 °F 65 °F (1949)
Min Temperature 23 °F 4 °F -23 °F (1976)
Degree Days  
Heating Degree Days 38    
Moisture  
Dew Point 9 °F    
Average Humidity 48    
Maximum Humidity 59    
Minimum Humidity 38    
Precipitation  
Precipitation 0.00 in - - ()
Sea Level Pressure  
Sea Level Pressure 30.40 in    
Wind  
Wind Speed 9 mph (South)    
Max Wind Speed 18 mph    
Max Gust Speed 22 mph    
Visibility 10 miles    
Events      
Averages and records for this station are not official NWS values.
T = Trace of Precipitation, MM = Missing Value Source: NWS Daily Summary

Daily Weather History Graph

Daily Weather History Graph

Search for Another Location

Airport or City:

Astronomy

Nov. 28, 2013 Rise Set
Actual Time 7:00 AM MST 4:45 PM MST
Civil Twilight 6:31 AM MST 5:14 PM MST
Nautical Twilight 5:58 AM MST 5:47 PM MST
Astronomical Twilight 5:26 AM MST 6:18 PM MST
Moon 2:09 AM MST (11/28) 1:53 PM MST (11/28)
Length of Visible Light 10h 43m
Length of Day
9h 45m
Waning Crescent, 22% of the Moon is Illuminated
Nov 28
Waning Crescent
Dec 2
New
Dec 9
First Quarter
Dec 17
Full
Dec 25
Last Quarter

Hourly Weather History & Observations

Time (MST) Temp. Windchill Dew Point Humidity Pressure Visibility Wind Dir Wind Speed Gust Speed Precip Events Conditions
12:17 AM 26.6 °F 20.0 °F 12.2 °F 55% 30.39 in 10.0 mi East 5.8 mph - N/A   Clear
12:37 AM 26.6 °F 17.5 °F 10.4 °F 51% 30.38 in 10.0 mi East 9.2 mph - N/A   Clear
12:57 AM 26.6 °F 18.2 °F 10.4 °F 51% 30.38 in 10.0 mi East 8.1 mph - N/A   Clear
1:17 AM 26.6 °F 20.0 °F 10.4 °F 51% 30.38 in 10.0 mi East 5.8 mph - N/A   Clear
1:37 AM 26.6 °F 20.0 °F 10.4 °F 51% 30.39 in 10.0 mi East 5.8 mph - N/A   Clear
1:57 AM 26.6 °F 21.2 °F 10.4 °F 51% 30.39 in 10.0 mi East 4.6 mph - N/A   Clear
2:17 AM 26.6 °F 22.6 °F 10.4 °F 51% 30.39 in 10.0 mi SE 3.5 mph - N/A   Clear
2:37 AM 26.6 °F 21.2 °F 10.4 °F 51% 30.39 in 10.0 mi South 4.6 mph - N/A   Clear
2:57 AM 26.6 °F 22.6 °F 8.6 °F 47% 30.39 in 10.0 mi SSE 3.5 mph - N/A   Clear
3:17 AM 26.6 °F 22.6 °F 10.4 °F 51% 30.39 in 10.0 mi ESE 3.5 mph - N/A   Clear
3:37 AM 26.6 °F 20.0 °F 10.4 °F 51% 30.39 in 10.0 mi East 5.8 mph - N/A   Clear
3:57 AM 26.6 °F 21.2 °F 10.4 °F 51% 30.38 in 10.0 mi East 4.6 mph - N/A   Clear
4:17 AM 24.8 °F 17.9 °F 10.4 °F 54% 30.38 in 10.0 mi ESE 5.8 mph - N/A   Clear
4:37 AM 24.8 °F 17.9 °F 8.6 °F 50% 30.38 in 10.0 mi SSE 5.8 mph - N/A   Clear
4:57 AM 24.8 °F 17.9 °F 10.4 °F 54% 30.39 in 10.0 mi SSE 5.8 mph - N/A   Clear
5:17 AM 23.0 °F 15.8 °F 10.4 °F 59% 30.39 in 10.0 mi SE 5.8 mph - N/A   Clear
5:37 AM 23.0 °F 17.0 °F 8.6 °F 54% 30.39 in 10.0 mi East 4.6 mph - N/A   Clear
5:57 AM 24.8 °F 20.5 °F 10.4 °F 54% 30.39 in 10.0 mi ESE 3.5 mph - N/A   Clear
6:17 AM 24.8 °F 17.9 °F 10.4 °F 54% 30.39 in 10.0 mi SE 5.8 mph - N/A   Clear
6:37 AM 24.8 °F 16.9 °F 8.6 °F 50% 30.40 in 10.0 mi SSE 6.9 mph - N/A   Clear
6:57 AM 23.0 °F 13.1 °F 10.4 °F 59% 30.40 in 10.0 mi South 9.2 mph - N/A   Clear
7:17 AM 24.8 °F 15.3 °F 10.4 °F 54% 30.40 in 10.0 mi South 9.2 mph - N/A   Clear
7:37 AM 24.8 °F 14.6 °F 10.4 °F 54% 30.40 in 10.0 mi South 10.4 mph - N/A   Clear
7:57 AM 26.6 °F 17.5 °F 10.4 °F 51% 30.41 in 10.0 mi South 9.2 mph - N/A   Clear
8:17 AM 26.6 °F 17.5 °F 10.4 °F 51% 30.41 in 10.0 mi South 9.2 mph - N/A   Clear
8:37 AM 26.6 °F 18.2 °F 10.4 °F 51% 30.42 in 10.0 mi SSE 8.1 mph - N/A   Clear
8:57 AM 26.6 °F 22.6 °F 10.4 °F 51% 30.42 in 10.0 mi SE 3.5 mph - N/A   Clear
9:17 AM 28.4 °F 23.3 °F 12.2 °F 51% 30.42 in 10.0 mi South 4.6 mph - N/A   Scattered Clouds
9:37 AM 28.4 °F 23.3 °F 12.2 °F 51% 30.42 in 10.0 mi South 4.6 mph - N/A   Clear
9:57 AM 28.4 °F 19.7 °F 12.2 °F 51% 30.43 in 10.0 mi South 9.2 mph - N/A   Scattered Clouds
10:17 AM 28.4 °F 20.4 °F 12.2 °F 51% 30.43 in 10.0 mi South 8.1 mph 17.3 mph N/A   Clear
10:37 AM 30.2 °F 21.3 °F 12.2 °F 47% 30.42 in 10.0 mi South 10.4 mph 16.1 mph N/A   Clear
10:57 AM 30.2 °F 20.8 °F 12.2 °F 47% 30.42 in 10.0 mi South 11.5 mph - N/A   Clear
11:17 AM 30.2 °F 19.8 °F 10.4 °F 44% 30.42 in 10.0 mi South 13.8 mph 19.6 mph N/A   Clear
11:37 AM 30.2 °F 19.3 °F 8.6 °F 40% 30.41 in 10.0 mi South 15.0 mph - N/A   Clear
11:57 AM 30.2 °F 19.8 °F 8.6 °F 40% 30.40 in 10.0 mi SSW 13.8 mph - N/A   Clear
12:17 PM 30.2 °F 19.8 °F 8.6 °F 40% 30.40 in 10.0 mi South 13.8 mph - N/A   Clear
12:37 PM 30.2 °F 19.8 °F 10.4 °F 44% 30.39 in 10.0 mi SSW 13.8 mph 21.9 mph N/A   Clear
12:57 PM 32.0 °F 22.5 °F 10.4 °F 41% 30.39 in 10.0 mi SSW 12.7 mph - N/A   Clear
1:17 PM 32.0 °F 21.2 °F 8.6 °F 38% 30.38 in 10.0 mi SSW 16.1 mph - N/A   Clear
1:37 PM 32.0 °F 22.1 °F 8.6 °F 38% 30.38 in 10.0 mi South 13.8 mph 19.6 mph N/A   Clear
1:57 PM 32.0 °F 22.1 °F 8.6 °F 38% 30.38 in 10.0 mi SSW 13.8 mph 19.6 mph N/A   Clear
2:17 PM 32.0 °F 20.8 °F 8.6 °F 38% 30.38 in 10.0 mi SSW 17.3 mph 21.9 mph N/A   Clear
2:37 PM 32.0 °F 22.1 °F 10.4 °F 41% 30.38 in 10.0 mi SSW 13.8 mph 18.4 mph N/A   Clear
2:57 PM 32.0 °F 22.1 °F 8.6 °F 38% 30.39 in 10.0 mi SSW 13.8 mph - N/A   Clear
3:17 PM 30.2 °F 20.2 °F 10.4 °F 44% 30.39 in 10.0 mi SSW 12.7 mph - N/A   Clear
3:37 PM 30.2 °F 19.3 °F 10.4 °F 44% 30.40 in 10.0 mi SW 15.0 mph - N/A   Clear
3:57 PM 30.2 °F 18.9 °F 10.4 °F 44% 30.40 in 10.0 mi SSW 16.1 mph - N/A   Clear
4:17 PM 28.4 °F 18.0 °F 10.4 °F 47% 30.40 in 10.0 mi SW 12.7 mph - N/A   Clear
4:37 PM 28.4 °F 18.5 °F 8.6 °F 43% 30.40 in 10.0 mi SW 11.5 mph - N/A   Clear
4:57 PM 26.6 °F 15.7 °F 8.6 °F 47% 30.40 in 10.0 mi SSW 12.7 mph - N/A   Clear
5:17 PM 26.6 °F 15.2 °F 8.6 °F 47% 30.40 in 10.0 mi SSW 13.8 mph - N/A   Clear
5:37 PM 24.8 °F 12.4 °F 8.6 °F 50% 30.41 in 10.0 mi SSW 15.0 mph - N/A   Clear
5:57 PM 24.8 °F 11.9 °F 8.6 °F 50% 30.41 in 10.0 mi SSW 16.1 mph - N/A   Clear
6:17 PM 24.8 °F 11.9 °F 8.6 °F 50% 30.41 in 10.0 mi SSW 16.1 mph - N/A   Clear
6:37 PM 26.6 °F 15.2 °F 8.6 °F 47% 30.41 in 10.0 mi SSW 13.8 mph - N/A   Clear
6:57 PM 24.8 °F 12.9 °F 8.6 °F 50% 30.42 in 10.0 mi SSW 13.8 mph - N/A   Clear
7:17 PM 24.8 °F 12.9 °F 8.6 °F 50% 30.41 in 10.0 mi SW 13.8 mph - N/A   Clear
7:37 PM 26.6 °F 15.2 °F 8.6 °F 47% 30.41 in 10.0 mi SW 13.8 mph - N/A   Clear
7:57 PM 26.6 °F 15.2 °F 6.8 °F 43% 30.41 in 10.0 mi SW 13.8 mph - N/A   Clear
8:17 PM 24.8 °F 12.9 °F 6.8 °F 46% 30.41 in 10.0 mi SW 13.8 mph - N/A   Clear
8:37 PM 26.6 °F 15.7 °F 6.8 °F 43% 30.41 in 10.0 mi SW 12.7 mph - N/A   Clear
8:57 PM 24.8 °F 12.9 °F 8.6 °F 50% 30.41 in 10.0 mi SW 13.8 mph - N/A   Clear
9:17 PM 24.8 °F 12.4 °F 8.6 °F 50% 30.42 in 10.0 mi SSW 15.0 mph - N/A   Clear
9:37 PM 24.8 °F 12.4 °F 8.6 °F 50% 30.42 in 10.0 mi SSW 15.0 mph - N/A   Clear
9:57 PM 23.0 °F 9.2 °F 8.6 °F 54% 30.42 in 10.0 mi SSW 17.3 mph - N/A   Clear
10:17 PM 23.0 °F 8.7 °F 6.8 °F 50% 30.42 in 10.0 mi SSW 18.4 mph - N/A   Clear
10:37 PM 24.8 °F 11.5 °F 5.0 °F 43% 30.41 in 10.0 mi SSW 17.3 mph - N/A   Clear
10:57 PM 23.0 °F 9.6 °F 5.0 °F 46% 30.41 in 10.0 mi SSW 16.1 mph - N/A   Clear
11:17 PM 23.0 °F 10.1 °F 5.0 °F 46% 30.41 in 10.0 mi SSW 15.0 mph - N/A   Clear
11:37 PM 23.0 °F 9.6 °F 3.2 °F 43% 30.41 in 10.0 mi SW 16.1 mph - N/A   Clear
11:57 PM 23.0 °F - 3.2 °F 43% 30.41 in 10.0 mi North - - N/A   Scattered Clouds